George, South Africa

7:47 PM SAST on April 19, 2018 (GMT +0200)
George

Weather History for FAGG - May, 2013

Change the Weather History Date:

Saturday, May 18, 2013

  Actual Average Record
Temperature  
Mean Temperature 55 °F -  
Max Temperature 67 °F 66 °F 87 °F (2001)
Min Temperature 43 °F 47 °F 43 °F (2013)
Degree Days  
Heating Degree Days 10    
Growing Degree Days 5 (Base 50)    
Moisture  
Dew Point 46 °F    
Average Humidity 74    
Maximum Humidity 93    
Minimum Humidity 41    
Precipitation  
Precipitation 0.00 in - - ()
Sea Level Pressure  
Sea Level Pressure 30.33 in    
Wind  
Wind Speed 3 mph ()    
Max Wind Speed 9 mph    
Max Gust Speed -    
Visibility 14.0 miles    
Events      
Averages and records for this station are not official NWS values.
T = Trace of Precipitation, MM = Missing Value Source: Averaged Metar Reports

Daily Weather History Graph

Daily Weather History Graph

Search for Another Location

Airport or City:

Astronomy

May. 18, 2013 Rise Set
Actual Time 7:18 AM SAST 5:35 PM SAST
Civil Twilight 6:51 AM SAST 6:02 PM SAST
Nautical Twilight 6:20 AM SAST 6:32 PM SAST
Astronomical Twilight 5:51 AM SAST 7:02 PM SAST
Moon 1:07 PM SAST (5/18) 12:01 AM SAST (5/18)
Length of Visible Light 11h 11m
Length of Day
10h 17m
First Quarter, 52% of the Moon is Illuminated
May 18
First Quarter
May 25
Full
May 31
Last Quarter
Jun 8
New
Jun 16
First Quarter

Hourly Weather History & Observations

Time (SAST) Temp. Windchill Dew Point Humidity Pressure Visibility Wind Dir Wind Speed Gust Speed Precip Events Conditions
12:00 AM 48.2 °F - 42.8 °F 82% 30.42 in - North 3.5 mph - N/A   Clear
1:00 AM 48.2 °F - 42.8 °F 82% 30.42 in - North 3.5 mph - N/A   Clear
2:00 AM 45 °F - 42 °F 83% 30.43 in 12 mi 1.2 mph - -  
2:00 AM 46.4 °F - 42.8 °F 87% 30.39 in - Calm Calm - N/A   Clear
3:00 AM 44.6 °F 43.1 °F 41.0 °F 87% 30.39 in - North 3.5 mph - N/A   Clear
4:00 AM 46.4 °F - 42.8 °F 87% 30.39 in - North 2.3 mph - N/A   Clear
5:00 AM 45 °F - 42 °F 86% 30.41 in 12 mi NE 2.3 mph - -  
5:00 AM 44.6 °F 43.1 °F 42.8 °F 93% 30.39 in - NE 3.5 mph - N/A   Clear
6:00 AM 50.0 °F - 42.8 °F 76% 30.39 in - NE 4.6 mph - N/A   Clear
7:00 AM 48.2 °F - 42.8 °F 82% 30.39 in - ENE 3.5 mph - N/A   Clear
8:00 AM 45 °F - 40 °F 77% 30.42 in 19 mi North 3.5 mph - -  
8:00 AM 44.6 °F 43.1 °F 41.0 °F 87% 30.39 in - North 3.5 mph - N/A   Clear
9:00 AM 53.6 °F - 46.4 °F 77% 30.39 in - Variable 2.3 mph - N/A   Clear
10:00 AM 59.0 °F - 48.2 °F 67% 30.39 in - Variable 2.3 mph - N/A   Clear
11:00 AM 64 °F - 46 °F 41% 30.38 in 19 mi ESE 5.8 mph - -  
11:00 AM 64.4 °F - 46.4 °F 52% 30.39 in - ESE 5.8 mph - N/A   Clear
12:00 PM 66.2 °F - 44.6 °F 46% 30.36 in - East 6.9 mph - N/A   Clear
1:00 PM 66.2 °F - 46.4 °F 49% 30.33 in - SE 6.9 mph - N/A   Clear
2:00 PM 66 °F - 50 °F 45% 30.31 in 12 mi ESE 5.8 mph - -  
2:00 PM 66.2 °F - 50.0 °F 56% 30.30 in - ESE 5.8 mph - N/A   Clear
3:00 PM 64.4 °F - 53.6 °F 68% 30.27 in - SE 9.2 mph - N/A   Clear
4:00 PM 62.6 °F - 50.0 °F 63% 30.27 in - ESE 8.1 mph - N/A   Clear
5:00 PM 61 °F - 49 °F 56% 30.27 in 12 mi East 8.1 mph - -  
5:00 PM 60.8 °F - 50.0 °F 68% 30.27 in - East 6.9 mph - N/A   Clear
6:00 PM 55.4 °F - 50.0 °F 82% 30.24 in - East 5.8 mph - N/A   Clear
7:00 PM 53.6 °F - 50.0 °F 88% 30.24 in - NNE 3.5 mph - N/A   Clear
8:00 PM 52 °F - 49 °F 85% 30.25 in 12 mi North 2.3 mph - -  
8:00 PM 51.8 °F - 48.2 °F 88% 30.24 in - North 2.3 mph - N/A   Clear
9:00 PM 51.8 °F - 48.2 °F 88% 30.21 in - North 3.5 mph - N/A   Clear
10:00 PM 50.0 °F - 46.4 °F 87% 30.21 in - Calm Calm - N/A   Clear
11:00 PM 51.8 °F - 48.2 °F 88% 30.18 in - Calm Calm - N/A   Clear